Regional Weather Roundup
Issued by NWS Columbia, SC

Home | Current Version | Previous Version | Text Only | Print | Product List | Glossary On
Versions: 1 2 3 4 5 6 7 8 9 10 11 12 13 14 15 16 17 18 19 20 21 22 23 24 25 26 27 28 29 30 31 32 33 34 35 36 37 38 39 40 41 42 43 44 45 46 47 48 49 50
000
ASUS42 KCAE 011010
RWRCAE
REGIONAL WEATHER ROUNDUP
NATIONAL WEATHER SERVICE COLUMBIA SC
500 AM EST SUN FEB 01 2015

NOTE: "FAIR" INDICATES FEW OR NO CLOUDS BELOW 12,000 FEET WITH NO
SIGNIFICANT WEATHER AND/OR OBSTRUCTIONS TO VISIBILITY.

NOT ALL STATIONS ARE QUALITY CONTROLLED BY THE NATIONAL
WEATHER SERVICE. USE DATA WITH CAUTION...ESPECIALLY
DEWPOINT OBSERVATIONS.

SCZ001>056-GAZ040-063>065-077-011100-
...UPSTATE SOUTH CAROLINA...

CITY           SKY/WX    TMP DP  RH WIND       PRES   REMARKS
ANDERSON       CLOUDY    38  29  70 CALM      30.24F
LIBERTY        CLOUDY    36  31  84 MISG      30.23S
SPARTANBURG    CLOUDY    43  23  45 CALM      30.24R
CLEMSON          N/A     41  24  51 CALM      30.25S
GREENVILLE     CLOUDY    42  21  43 S5        30.23S
GREENWOOD      CLOUDY    41  24  51 SW5       30.27R
GREER          CLOUDY    41  24  51 S7        30.21S
ROCK HILL      CLOUDY    40  21  46 SW8       30.25S WCI  34
CHESTER        CLOUDY    43  21  42 CALM      30.25F
LAURENS        CLOUDY    37  32  81 SW3       30.25S


...CENTRAL SOUTH CAROLINA...

CITY           SKY/WX    TMP DP  RH WIND       PRES   REMARKS
COLUMBIA APT   CLOUDY    40  28  62 CALM      30.27S
COLUMBIA OWENS CLOUDY    40  28  62 CALM      30.29F
DARLINGTON     CLOUDY    37  27  65 SW3       30.30S
FLORENCE       CLOUDY    38  28  67 SW3       30.29F
MCENTIRE ANGB  CLOUDY    36  27  71 CALM      30.29S
ORANGEBURG     CLOUDY    36  29  75 CALM      30.29S
SUMTER SHAW    CLOUDY    38  27  65 CALM      30.27S
NEWBERRY       CLOUDY    39  27  60 SW3       30.29S
AIKEN          FAIR      37  28  70 CALM      30.30S
BARNWELL         N/A     36  32  87 CALM      30.29S
MANNING        FAIR      37  32  81 CALM      30.29F
CAMDEN         FAIR      36  27  69 CALM      30.29S
LANCASTER      CLOUDY    37  23  56 CALM      30.26F
WINNSBORO      CLOUDY    39  25  56 S5        30.25F


...EASTERN AND COASTAL SOUTH CAROLINA...

CITY           SKY/WX    TMP DP  RH WIND       PRES   REMARKS
MYRTLE BEACH   CLOUDY    37  30  75 CALM      30.34R
N MYRTLE BCH   CLOUDY    36  30  79 CALM      30.32R
CONWAY         FAIR      34  32  93 CALM      30.32R
MARION         FAIR      37  30  75 CALM      30.31F
HARTSVILLE     FAIR      37  30  75 CALM      30.29S
FLORENCE       CLOUDY    38  28  67 SW3       30.29F
DARLINGTON     CLOUDY    37  27  65 SW3       30.30S
CHARLESTON APT CLOUDY    39  34  82 CALM      30.30F
MOUNT PLEASANT MIX PCPN  36  34  93 CALM      30.30F
WALTERBORO     CLOUDY    36  36 100 CALM      30.30S
BEAUFORT       MOCLDY    40  38  93 CALM      30.29F


...EASTERN GEORGIA...

CITY           SKY/WX    TMP DP  RH WIND       PRES   REMARKS
AUGUSTA BUSH F MOCLDY    35  28  75 CALM      30.28F
AUGUSTA DANIEL MOCLDY    43  25  49 SE3       30.27F
THOMSON        MOCLDY    39  33  77 CALM      30.30S
WASHINGTON     FAIR      43  34  70 S5        30.24S
CLAXTON        FAIR      36  34  93 CALM      30.27S
SYLVANIA       PTSUNNY   36  36  97 CALM      30.28F
STATESBORO     MOCLDY    35  35 100 CALM      30.26F
SAVANNAH       MOCLDY    38  35  89 CALM      30.28F


...SOUTHERN NORTH CAROLINA...

CITY           SKY/WX    TMP DP  RH WIND       PRES   REMARKS
CHARLOTTE      CLOUDY    40  20  44 S3        30.25S
MONROE         CLOUDY    43  19  38 SW5       30.23F
WADESBORO      CLOUDY    35  29  78 CALM      30.25F
ROCKINGHAM       N/A     38  21  50 S5        30.28R WCI  34
RUTHERFORDTON  CLOUDY    38  23  55 CALM      30.23R
ASHEVILLE      CLOUDY    34  22  61 CALM      30.20R

$$


USA.gov is the U.S. government's official web portal to all federal, state and local government web resources and services.